TimeCDT,TemperatureF,Dew PointF,Humidity,Sea Level PressureIn,VisibilityMPH,Wind Direction,Wind SpeedMPH,Gust SpeedMPH,PrecipitationIn,Events,Conditions,WindDirDegrees,DateUTC
12:53 AM,87.1,53.1,31,29.90,-9999.0,East,11.5,-,N/A,,Unknown,100,2013-08-18 05:53:00
1:53 AM,86.0,53.1,32,29.90,-9999.0,ESE,13.8,-,N/A,,Unknown,110,2013-08-18 06:53:00
2:53 AM,84.9,52.0,32,29.90,-9999.0,ESE,15.0,21.9,N/A,,Unknown,110,2013-08-18 07:53:00
3:53 AM,82.9,52.0,34,29.91,-9999.0,ESE,15.0,24.2,N/A,,Unknown,110,2013-08-18 08:53:00
4:53 AM,81.0,52.0,36,29.90,-9999.0,East,8.1,-,N/A,,Unknown,100,2013-08-18 09:53:00
5:53 AM,77.0,51.1,40,29.90,-9999.0,East,6.9,-,N/A,,Unknown,90,2013-08-18 10:53:00
6:53 AM,75.9,52.0,43,29.91,-9999.0,Calm,Calm,-,N/A,,Unknown,0,2013-08-18 11:53:00
7:53 AM,75.0,52.0,44,29.94,-9999.0,Calm,Calm,-,N/A,,Unknown,0,2013-08-18 12:53:00
8:53 AM,80.1,55.0,42,29.96,-9999.0,East,6.9,-,N/A,,Unknown,80,2013-08-18 13:53:00
9:53 AM,81.0,57.0,44,29.96,-9999.0,SSE,4.6,-,N/A,,Unknown,150,2013-08-18 14:53:00
10:53 AM,84.9,57.9,40,29.97,-9999.0,Calm,Calm,-,N/A,,Unknown,0,2013-08-18 15:53:00
11:53 AM,89.1,57.9,35,29.95,-9999.0,SSE,5.8,-,N/A,,Unknown,160,2013-08-18 16:53:00
12:53 PM,93.0,55.9,29,29.94,-9999.0,South,3.5,-,N/A,,Unknown,180,2013-08-18 17:53:00
1:53 PM,96.1,55.0,25,29.91,-9999.0,SSW,9.2,-,N/A,,Unknown,200,2013-08-18 18:53:00
2:53 PM,100.0,54.0,21,29.88,-9999.0,East,9.2,-,N/A,,Unknown,100,2013-08-18 19:53:00
3:53 PM,102.0,51.1,18,29.85,-9999.0,East,10.4,17.3,N/A,,Unknown,100,2013-08-18 20:53:00
4:53 PM,102.9,53.1,19,29.83,-9999.0,ESE,15.0,23.0,N/A,,Unknown,110,2013-08-18 21:53:00
5:53 PM,100.0,52.0,20,29.85,-9999.0,ESE,9.2,18.4,N/A,,Unknown,120,2013-08-18 22:53:00
6:53 PM,98.1,54.0,23,29.85,-9999.0,ESE,15.0,20.7,N/A,,Unknown,120,2013-08-18 23:53:00
7:53 PM,91.0,57.0,32,29.88,-9999.0,NW,5.8,-,N/A,,Unknown,320,2013-08-19 00:53:00
8:53 PM,90.0,57.0,33,29.88,-9999.0,Calm,Calm,-,N/A,,Unknown,0,2013-08-19 01:53:00
9:53 PM,90.0,55.0,30,29.88,-9999.0,SE,6.9,-,N/A,,Unknown,130,2013-08-19 02:53:00
10:53 PM,90.0,55.0,30,29.91,-9999.0,ESE,10.4,-,N/A,,Unknown,120,2013-08-19 03:53:00
11:53 PM,89.1,55.0,31,29.91,-9999.0,SE,12.7,-,N/A,,Unknown,130,2013-08-19 04:53:00